Time,TemperatureF,DewpointF,PressureIn,WindDirection,WindDirectionDegrees,WindSpeedMPH,WindSpeedGustMPH,Humidity,HourlyPrecipIn,Conditions,Clouds,dailyrainin,SolarRadiationWatts/m^2,SoftwareType,DateUTC
2013-05-13 01:00:00,29.0,24.0,-100.00,WNW,292,4.0,-999.0,78,-99.99,,,-99.99,0.000000,,2013-05-13 06:00:00,
2013-05-13 01:42:00,29.0,24.0,-100.00,WNW,292,4.0,-999.0,78,-99.99,,,-99.99,0.000000,,2013-05-13 06:42:00,
2013-05-13 01:52:00,29.0,24.0,-100.00,WNW,292,4.0,-999.0,78,-99.99,,,-99.99,0.000000,,2013-05-13 06:52:00,
2013-05-13 02:00:00,31.0,24.0,-100.00,WNW,292,4.0,-999.0,74,-99.99,,,-99.99,0.000000,,2013-05-13 07:00:00,
2013-05-13 02:42:00,31.0,24.0,-100.00,WNW,292,4.0,-999.0,74,-99.99,,,-99.99,0.000000,,2013-05-13 07:42:00,
2013-05-13 02:52:00,31.0,24.0,-100.00,WNW,292,4.0,-999.0,74,-99.99,,,-99.99,0.000000,,2013-05-13 07:52:00,
2013-05-13 03:00:00,32.0,24.0,-100.00,WNW,292,5.0,-999.0,71,-99.99,,,-99.99,0.000000,,2013-05-13 08:00:00,
2013-05-13 03:42:00,32.0,24.0,-100.00,WNW,292,5.0,-999.0,71,-99.99,,,-99.99,0.000000,,2013-05-13 08:42:00,
2013-05-13 03:52:00,32.0,24.0,-100.00,WNW,292,5.0,-999.0,71,-99.99,,,-99.99,0.000000,,2013-05-13 08:52:00,
2013-05-13 04:00:00,32.0,24.0,-100.00,WNW,292,5.0,-999.0,72,-99.99,,,-99.99,0.000000,,2013-05-13 09:00:00,
2013-05-13 04:42:00,32.0,24.0,-100.00,WNW,292,5.0,-999.0,72,-99.99,,,-99.99,0.000000,,2013-05-13 09:42:00,
2013-05-13 04:52:00,32.0,24.0,-100.00,WNW,292,5.0,-999.0,72,-99.99,,,-99.99,0.000000,,2013-05-13 09:52:00,
2013-05-13 05:00:00,30.0,24.0,-100.00,WNW,292,3.0,-999.0,77,-99.99,,,-99.99,0.000000,,2013-05-13 10:00:00,
2013-05-13 05:43:00,30.0,24.0,-100.00,WNW,292,3.0,-999.0,77,-99.99,,,-99.99,0.000000,,2013-05-13 10:43:00,
2013-05-13 05:52:00,30.0,24.0,-100.00,WNW,292,3.0,-999.0,77,-99.99,,,-99.99,0.000000,,2013-05-13 10:52:00,
2013-05-13 06:00:00,28.0,24.0,-100.00,WNW,292,3.0,-999.0,83,-99.99,,,-99.99,19.719999,,2013-05-13 11:00:00,
2013-05-13 06:42:00,28.0,24.0,-100.00,WNW,292,3.0,-999.0,83,-99.99,,,-99.99,19.719999,,2013-05-13 11:42:00,
2013-05-13 06:52:00,28.0,24.0,-100.00,WNW,292,3.0,-999.0,83,-99.99,,,-99.99,19.719999,,2013-05-13 11:52:00,
2013-05-13 07:00:00,34.0,26.0,-100.00,WNW,292,5.0,-999.0,72,-99.99,,,-99.99,157.759995,,2013-05-13 12:00:00,
2013-05-13 07:42:00,34.0,26.0,-100.00,WNW,292,5.0,-999.0,72,-99.99,,,-99.99,157.759995,,2013-05-13 12:42:00,
2013-05-13 07:52:00,34.0,26.0,-100.00,WNW,292,5.0,-999.0,72,-99.99,,,-99.99,157.759995,,2013-05-13 12:52:00,
2013-05-13 08:00:00,38.0,26.0,-100.00,WNW,292,7.0,-999.0,60,-99.99,,,-99.99,334.079987,,2013-05-13 13:00:00,
2013-05-13 08:42:00,38.0,26.0,-100.00,WNW,292,7.0,-999.0,60,-99.99,,,-99.99,334.079987,,2013-05-13 13:42:00,
2013-05-13 08:52:00,38.0,26.0,-100.00,WNW,292,7.0,-999.0,60,-99.99,,,-99.99,334.079987,,2013-05-13 13:52:00,
2013-05-13 09:00:00,41.0,24.0,-100.00,WNW,292,8.0,-999.0,49,-99.99,,,-99.99,511.559998,,2013-05-13 14:00:00,
2013-05-13 09:42:00,41.0,24.0,-100.00,WNW,292,8.0,-999.0,49,-99.99,,,-99.99,511.559998,,2013-05-13 14:42:00,
2013-05-13 09:52:00,41.0,24.0,-100.00,WNW,292,8.0,-999.0,49,-99.99,,,-99.99,511.559998,,2013-05-13 14:52:00,
2013-05-13 10:00:00,43.0,22.0,-100.00,WNW,292,8.0,-999.0,42,-99.99,,,-99.99,671.640015,,2013-05-13 15:00:00,
2013-05-13 10:42:00,43.0,22.0,-100.00,WNW,292,8.0,-999.0,42,-99.99,,,-99.99,671.640015,,2013-05-13 15:42:00,
2013-05-13 10:53:00,43.0,22.0,-100.00,WNW,292,8.0,-999.0,42,-99.99,,,-99.99,671.640015,,2013-05-13 15:53:00,
2013-05-13 11:00:00,45.0,20.0,-100.00,West,270,8.0,-999.0,36,-99.99,,,-99.99,786.479980,,2013-05-13 16:00:00,
2013-05-13 11:34:00,45.0,20.0,-100.00,West,270,8.0,-999.0,36,-99.99,,,-99.99,786.479980,,2013-05-13 16:34:00,
2013-05-13 11:43:00,45.0,20.0,-100.00,West,270,8.0,-999.0,36,-99.99,,,-99.99,786.479980,,2013-05-13 16:43:00,
2013-05-13 11:53:00,45.0,20.0,-100.00,West,270,8.0,-999.0,36,-99.99,,,-99.99,786.479980,,2013-05-13 16:53:00,
2013-05-13 12:00:00,47.0,19.0,-100.00,WSW,247,5.0,-999.0,32,-99.99,,,-99.99,858.400024,,2013-05-13 17:00:00,
2013-05-13 12:42:00,47.0,19.0,-100.00,WSW,247,5.0,-999.0,32,-99.99,,,-99.99,858.400024,,2013-05-13 17:42:00,
2013-05-13 12:54:00,47.0,19.0,-100.00,WSW,247,5.0,-999.0,32,-99.99,,,-99.99,858.400024,,2013-05-13 17:54:00,
2013-05-13 14:00:00,50.0,25.0,-100.00,SSE,157,8.0,-999.0,38,-99.99,,,-99.99,889.719971,,2013-05-13 19:00:00,
2013-05-13 14:44:00,50.0,25.0,-100.00,SSE,157,8.0,-999.0,38,-99.99,,,-99.99,889.719971,,2013-05-13 19:44:00,
2013-05-13 14:53:00,50.0,25.0,-100.00,SSE,157,8.0,-999.0,38,-99.99,,,-99.99,889.719971,,2013-05-13 19:53:00,
2013-05-13 15:00:00,49.0,23.0,-100.00,SSE,157,9.0,-999.0,36,-99.99,,,-99.99,828.239990,,2013-05-13 20:00:00,
2013-05-13 15:44:00,49.0,23.0,-100.00,SSE,157,9.0,-999.0,36,-99.99,,,-99.99,828.239990,,2013-05-13 20:44:00,
2013-05-13 15:53:00,49.0,23.0,-100.00,SSE,157,9.0,-999.0,36,-99.99,,,-99.99,828.239990,,2013-05-13 20:53:00,
2013-05-13 16:00:00,48.0,24.0,-100.00,SSE,157,9.0,-999.0,37,-99.99,,,-99.99,711.080017,,2013-05-13 21:00:00,
2013-05-13 16:44:00,48.0,24.0,-100.00,SSE,157,9.0,-999.0,37,-99.99,,,-99.99,711.080017,,2013-05-13 21:44:00,
2013-05-13 16:53:00,48.0,24.0,-100.00,SSE,157,9.0,-999.0,37,-99.99,,,-99.99,711.080017,,2013-05-13 21:53:00,
2013-05-13 17:00:00,46.0,23.0,-100.00,South,180,9.0,-999.0,38,-99.99,,,-99.99,429.200012,,2013-05-13 22:00:00,
2013-05-13 17:43:00,46.0,23.0,-100.00,South,180,9.0,-999.0,38,-99.99,,,-99.99,429.200012,,2013-05-13 22:43:00,
2013-05-13 17:52:00,46.0,23.0,-100.00,South,180,9.0,-999.0,38,-99.99,,,-99.99,429.200012,,2013-05-13 22:52:00,
2013-05-13 18:00:00,43.0,24.0,-100.00,South,180,9.0,-999.0,46,-99.99,,,-99.99,155.440002,,2013-05-13 23:00:00,
2013-05-13 18:42:00,43.0,24.0,-100.00,South,180,9.0,-999.0,46,-99.99,,,-99.99,155.440002,,2013-05-13 23:42:00,
2013-05-13 18:54:00,43.0,24.0,-100.00,South,180,9.0,-999.0,46,-99.99,,,-99.99,155.440002,,2013-05-13 23:54:00,
2013-05-13 20:00:00,41.0,23.0,-100.00,South,180,7.0,-999.0,49,-99.99,,,-99.99,11.600000,,2013-05-14 01:00:00,
2013-05-13 20:43:00,41.0,23.0,-100.00,South,180,7.0,-999.0,49,-99.99,,,-99.99,11.600000,,2013-05-14 01:43:00,
2013-05-13 20:53:00,41.0,23.0,-100.00,South,180,7.0,-999.0,49,-99.99,,,-99.99,11.600000,,2013-05-14 01:53:00,
2013-05-13 21:00:00,41.0,25.0,-100.00,South,180,6.0,-999.0,53,-99.99,,,-99.99,0.000000,,2013-05-14 02:00:00,
2013-05-13 21:42:00,41.0,25.0,-100.00,South,180,6.0,-999.0,53,-99.99,,,-99.99,0.000000,,2013-05-14 02:42:00,
2013-05-13 21:52:00,41.0,25.0,-100.00,South,180,6.0,-999.0,53,-99.99,,,-99.99,0.000000,,2013-05-14 02:52:00,
2013-05-13 22:00:00,42.0,26.0,-100.00,South,180,7.0,-999.0,53,-99.99,,,-99.99,0.000000,,2013-05-14 03:00:00,
2013-05-13 22:43:00,42.0,26.0,-100.00,South,180,7.0,-999.0,53,-99.99,,,-99.99,0.000000,,2013-05-14 03:43:00,
2013-05-13 22:53:00,42.0,26.0,-100.00,South,180,7.0,-999.0,53,-99.99,,,-99.99,0.000000,,2013-05-14 03:53:00,
2013-05-13 23:00:00,41.0,29.0,-100.00,South,180,7.0,-999.0,61,-99.99,,,-99.99,0.000000,,2013-05-14 04:00:00,
2013-05-13 23:32:00,41.0,29.0,-100.00,South,180,7.0,-999.0,61,-99.99,,,-99.99,0.000000,,2013-05-14 04:32:00,
2013-05-13 23:43:00,41.0,29.0,-100.00,South,180,7.0,-999.0,61,-99.99,,,-99.99,0.000000,,2013-05-14 04:43:00,
2013-05-13 23:53:00,41.0,29.0,-100.00,South,180,7.0,-999.0,61,-99.99,,,-99.99,0.000000,,2013-05-14 04:53:00,